| time (UTC) | temp F | wind direction | speed knots | gust knots | rain 1hr in | rain 24hr in | rain mn in | humidity % | barometer mb |
| 20260504221352 | 80 | 28 | 2.6 | 7.8 | 0.00 | 0.07 | 0.07 | 46 | 1001.8 |
| 20260504220858 | 80 | 240 | 1.7 | 6.1 | 0.00 | 0.07 | 0.07 | 46 | 1001.7 |
| 20260504220345 | 80 | 247 | 0.9 | 6.1 | 0.00 | 0.07 | 0.07 | 47 | 1001.8 |
| 20260504220140 | 79 | 270 | 1.7 | 6.1 | 0.00 | 0.07 | 0.07 | 46 | 1001.1 |
| 20260504215853 | 80 | 248 | 3.5 | 6.1 | 0.00 | 0.07 | 0.07 | 46 | 1001.8 |
| 20260504215357 | 80 | 237 | 1.7 | 7.0 | 0.00 | 0.07 | 0.07 | 47 | 1001.8 |
| 20260504214842 | 80 | 238 | 1.7 | 7.8 | 0.00 | 0.07 | 0.07 | 46 | 1001.7 |
| 20260504214605 | 79 | 205 | 2.6 | 7.8 | 0.00 | 0.07 | 0.07 | 46 | 1001.0 |
| 20260504214408 | 80 | 232 | 2.6 | 9.6 | 0.00 | 0.07 | 0.07 | 45 | 1001.7 |
| 20260504213852 | 80 | 244 | 4.3 | 9.6 | 0.00 | 0.07 | 0.07 | 46 | 1001.6 |
| 20260504213358 | 80 | 250 | 2.6 | 8.7 | 0.00 | 0.07 | 0.07 | 45 | 1001.7 |
| 20260504213005 | 80 | 246 | 1.7 | 7.0 | 0.00 | 0.07 | 0.07 | 46 | 1001.1 |
| 20260504212903 | 80 | 147 | 3.5 | 7.0 | 0.00 | 0.07 | 0.07 | 45 | 1001.7 |
| 20260504212349 | 80 | 244 | 2.6 | 7.0 | 0.00 | 0.07 | 0.07 | 46 | 1001.7 |
| 20260504211854 | 80 | 252 | 2.6 | 7.0 | 0.00 | 0.07 | 0.07 | 47 | 1001.8 |
| 20260504211619 | 80 | 252 | 3.5 | 6.1 | 0.00 | 0.07 | 0.07 | 45 | 1001.3 |
| 20260504211341 | 80 | 223 | 2.6 | 9.6 | 0.00 | 0.07 | 0.07 | 45 | 1001.9 |
| 20260504210846 | 80 | 245 | 3.5 | 9.6 | 0.00 | 0.07 | 0.07 | 46 | 1001.9 |
| 20260504210351 | 80 | 307 | 0.9 | 7.8 | 0.00 | 0.07 | 0.07 | 48 | 1002.1 |
| 20260504210147 | 80 | 239 | 1.7 | 7.8 | 0.00 | 0.07 | 0.07 | 46 | 1001.4 |
| 20260504205859 | 80 | 231 | 0.9 | 7.8 | 0.00 | 0.07 | 0.07 | 48 | 1002.1 |
| 20260504205403 | 80 | 215 | 2.6 | 7.8 | 0.00 | 0.07 | 0.07 | 47 | 1001.9 |
| 20260504204848 | 80 | 219 | 2.6 | 7.0 | 0.00 | 0.07 | 0.07 | 47 | 1002.1 |
| 20260504204612 | 80 | 233 | 0.9 | 7.0 | 0.00 | 0.07 | 0.07 | 48 | 1001.4 |
| 20260504204416 | 80 | 214 | 2.6 | 8.7 | 0.00 | 0.07 | 0.07 | 46 | 1001.9 |
| 20260504203840 | 80 | 224 | 3.5 | 8.7 | 0.00 | 0.07 | 0.07 | 46 | 1001.9 |
| 20260504203346 | 80 | 240 | 1.7 | 6.1 | 0.00 | 0.07 | 0.07 | 47 | 1002.0 |
| 20260504203110 | 80 | 211 | 1.7 | 5.2 | 0.00 | 0.07 | 0.07 | 48 | 1001.3 |
| 20260504202851 | 80 | 186 | 0.9 | 6.1 | 0.00 | 0.07 | 0.07 | 47 | 1002.0 |
| 20260504202358 | 80 | 223 | 1.7 | 7.0 | 0.00 | 0.07 | 0.07 | 47 | 1002.1 |
| 20260504201842 | 80 | 236 | 1.7 | 7.8 | 0.00 | 0.07 | 0.07 | 47 | 1002.2 |
| 20260504201611 | 79 | 238 | 1.7 | 7.8 | 0.00 | 0.07 | 0.07 | 48 | 1001.6 |
| 20260504201348 | 80 | 243 | 2.6 | 7.8 | 0.00 | 0.07 | 0.07 | 47 | 1002.4 |
| 20260504200915 | 80 | 228 | 3.5 | 7.8 | 0.00 | 0.07 | 0.07 | 46 | 1002.5 |
| 20260504200359 | 80 | 241 | 2.6 | 7.8 | 0.00 | 0.07 | 0.07 | 47 | 1002.5 |
| 20260504200015 | 79 | 250 | 0.9 | 7.8 | 0.00 | 0.07 | 0.07 | 48 | 1001.9 |
| 20260504195908 | 79 | 248 | 2.6 | 7.8 | 0.00 | 0.07 | 0.07 | 47 | 1002.6 |
| 20260504195352 | 79 | 232 | 1.7 | 7.8 | 0.00 | 0.07 | 0.07 | 48 | 1002.6 |
| 20260504194858 | 79 | 192 | 2.6 | 9.6 | 0.00 | 0.07 | 0.07 | 46 | 1002.7 |
| 20260504194624 | 79 | 243 | 2.6 | 9.6 | 0.00 | 0.07 | 0.07 | 46 | 1002.1 |
| 20260504194343 | 79 | 188 | 3.5 | 9.6 | 0.00 | 0.07 | 0.07 | 47 | 1002.7 |
| 20260504193909 | 79 | 238 | 2.6 | 11.3 | 0.00 | 0.07 | 0.07 | 47 | 1002.5 |
| 20260504193414 | 79 | 223 | 3.5 | 11.3 | 0.00 | 0.07 | 0.07 | 46 | 1002.6 |
| 20260504193119 | 78 | 237 | 0.9 | 5.2 | 0.00 | 0.07 | 0.07 | 50 | 1002.0 |
| 20260504192921 | 79 | 236 | 1.7 | 8.7 | 0.00 | 0.07 | 0.07 | 48 | 1002.7 |
| 20260504192345 | 78 | 240 | 1.7 | 8.7 | 0.00 | 0.07 | 0.07 | 49 | 1002.7 |
| 20260504191912 | 78 | 243 | 4.3 | 8.7 | 0.00 | 0.07 | 0.07 | 47 | 1002.9 |
| 20260504191631 | 78 | 207 | 1.7 | 8.7 | 0.00 | 0.07 | 0.07 | 48 | 1002.2 |
| 20260504191357 | 78 | 238 | 2.6 | 8.7 | 0.00 | 0.07 | 0.07 | 47 | 1002.8 |
| 20260504190842 | 79 | 232 | 4.3 | 10.4 | 0.00 | 0.07 | 0.07 | 47 | 1002.9 |
| 20260504190347 | 79 | 244 | 2.6 | 10.4 | 0.00 | 0.07 | 0.07 | 49 | 1002.7 |
| 20260504190143 | 78 | 257 | 1.7 | 7.8 | 0.00 | 0.07 | 0.07 | 49 | 1002.2 |
| 20260504185856 | 78 | 195 | 1.7 | 7.8 | 0.00 | 0.07 | 0.07 | 49 | 1002.8 |
| 20260504185341 | 78 | 242 | 1.7 | 7.0 | 0.00 | 0.07 | 0.07 | 49 | 1002.8 |
| 20260504184847 | 78 | 236 | 2.6 | 8.7 | 0.00 | 0.07 | 0.07 | 48 | 1002.8 |
| 20260504184610 | 78 | 252 | 1.7 | 8.7 | 0.00 | 0.07 | 0.07 | 48 | 1002.1 |
| 20260504184352 | 78 | 314 | 2.6 | 8.7 | 0.00 | 0.07 | 0.07 | 48 | 1002.7 |
| 20260504183919 | 78 | 236 | 2.6 | 7.0 | 0.00 | 0.07 | 0.07 | 49 | 1002.7 |
| 20260504183343 | 78 | 150 | 3.5 | 11.3 | 0.00 | 0.07 | 0.07 | 48 | 1002.7 |
| 20260504183108 | 78 | 239 | 2.6 | 11.3 | 0.00 | 0.07 | 0.07 | 51 | 1002.1 |
| 20260504182848 | 78 | 247 | 3.5 | 11.3 | 0.00 | 0.07 | 0.07 | 48 | 1002.5 |
| 20260504182353 | 78 | 259 | 2.6 | 7.8 | 0.00 | 0.07 | 0.07 | 49 | 1002.6 |
| 20260504181858 | 78 | 227 | 1.7 | 9.6 | 0.00 | 0.07 | 0.07 | 48 | 1002.8 |
| 20260504181622 | 78 | 246 | 2.6 | 9.6 | 0.00 | 0.07 | 0.07 | 49 | 1002.4 |
| 20260504181343 | 78 | 238 | 4.3 | 10.4 | 0.00 | 0.07 | 0.07 | 47 | 1003.1 |
| 20260504180850 | 78 | 200 | 2.6 | 9.6 | 0.00 | 0.07 | 0.07 | 47 | 1003.1 |
| 20260504180356 | 78 | 222 | 3.5 | 9.6 | 0.00 | 0.07 | 0.07 | 47 | 1003.2 |
| 20260504180005 | 78 | 246 | 3.5 | 11.3 | 0.00 | 0.07 | 0.07 | 47 | 1002.6 |
| 20260504175904 | 78 | 252 | 3.5 | 11.3 | 0.00 | 0.07 | 0.07 | 48 | 1003.2 |
| 20260504175410 | 78 | 223 | 5.2 | 11.3 | 0.00 | 0.07 | 0.07 | 46 | 1003.2 |
| 20260504174854 | 78 | 251 | 1.7 | 10.4 | 0.00 | 0.07 | 0.07 | 48 | 1003.2 |
| 20260504174619 | 77 | 234 | 2.6 | 10.4 | 0.00 | 0.07 | 0.07 | 49 | 1002.7 |
| 20260504174359 | 78 | 248 | 2.6 | 9.6 | 0.00 | 0.07 | 0.07 | 49 | 1003.3 |
| 20260504173847 | 77 | 253 | 2.6 | 9.6 | 0.00 | 0.07 | 0.07 | 49 | 1003.4 |
| 20260504173352 | 77 | 246 | 2.6 | 7.0 | 0.00 | 0.07 | 0.07 | 48 | 1003.3 |
| 20260504173116 | 77 | 244 | 2.6 | 7.0 | 0.00 | 0.07 | 0.07 | 48 | 1002.7 |
| 20260504172857 | 77 | 273 | 3.5 | 7.0 | 0.00 | 0.07 | 0.07 | 48 | 1003.4 |
| 20260504172343 | 77 | 239 | 2.6 | 7.0 | 0.00 | 0.07 | 0.07 | 50 | 1003.4 |
| 20260504171910 | 77 | 249 | 1.7 | 8.7 | 0.00 | 0.07 | 0.07 | 50 | 1003.5 |
| 20260504171613 | 76 | 198 | 1.7 | 8.7 | 0.00 | 0.07 | 0.07 | 49 | 1003.0 |
| 20260504171356 | 77 | 239 | 1.7 | 7.8 | 0.00 | 0.07 | 0.07 | 49 | 1003.6 |
| 20260504170840 | 77 | 252 | 2.6 | 10.4 | 0.00 | 0.07 | 0.07 | 50 | 1003.7 |
| 20260504170346 | 77 | 225 | 3.5 | 9.6 | 0.00 | 0.07 | 0.07 | 48 | 1003.7 |
| 20260504170145 | 76 | 229 | 1.7 | 9.6 | 0.00 | 0.07 | 0.07 | 50 | 1003.2 |
| 20260504160421 | 74 | 244 | 2.6 | 8.7 | 0.00 | 0.07 | 0.07 | 52 | 1004.2 |
| 20260504160136 | 74 | 242 | 2.6 | 8.7 | 0.00 | 0.07 | 0.07 | 52 | 1003.6 |
| 20260504150846 | 70 | 246 | 1.7 | 6.1 | 0.00 | 0.07 | 0.07 | 60 | 1004.2 |
| 20260504150351 | 69 | 254 | 2.6 | 6.1 | 0.00 | 0.07 | 0.07 | 61 | 1004.3 |
| 20260504140855 | 64 | 229 | 2.6 | 6.1 | 0.00 | 0.07 | 0.07 | 71 | 1004.7 |
| 20260504140341 | 63 | 221 | 2.6 | 5.2 | 0.00 | 0.07 | 0.07 | 72 | 1004.7 |
| 20260504140137 | 63 | 244 | 0.9 | 6.1 | 0.00 | 0.07 | 0.07 | 73 | 1004.3 |
| 20260504130356 | 62 | 209 | 0.0 | 1.7 | 0.00 | 0.07 | 0.07 | 77 | 1004.9 |
| 20260504130151 | 61 | 209 | 0.0 | 1.7 | 0.00 | 0.07 | 0.07 | 77 | 1004.4 |
| 20260504110400 | 56 | 253 | 2.6 | 7.0 | 0.00 | 0.07 | 0.07 | 87 | 1003.6 |
| 20260504100351 | 55 | 66 | 0.0 | 0.9 | 0.00 | 0.07 | 0.07 | 87 | 1005.8 |
| 20260504100146 | 54 | 66 | 0.0 | 0.9 | 0.00 | 0.07 | 0.07 | 87 | 1005.5 |
| 20260504090138 | 55 | 159 | 0.0 | 1.7 | 0.01 | 0.07 | 0.07 | 87 | 1006.3 |
| 20260504081855 | 56 | 153 | 0.0 | 0.0 | 0.00 | 0.06 | 0.06 | 87 | 1007.1 |
| 20260504081618 | 55 | 153 | 0.0 | 0.0 | 0.01 | 0.06 | 0.06 | 87 | 1006.9 |
| 20260504081341 | 56 | 153 | 0.0 | 0.0 | 0.01 | 0.06 | 0.06 | 87 | 1007.3 |
| 20260504080846 | 56 | 153 | 0.0 | 0.9 | 0.01 | 0.06 | 0.06 | 87 | 1007.4 |
| 20260504080351 | 56 | 153 | 0.0 | 2.6 | 0.01 | 0.06 | 0.06 | 87 | 1007.5 |
| 20260504080150 | 56 | 153 | 0.0 | 2.6 | 0.01 | 0.06 | 0.06 | 87 | 1007.0 |
| 20260504070347 | 56 | 108 | 0.0 | 0.9 | 0.00 | 0.05 | 0.05 | 85 | 1007.8 |
| 20260504070144 | 56 | 108 | 0.0 | 0.9 | 0.00 | 0.05 | 0.05 | 85 | 1007.5 |
| 20260504060135 | 57 | 108 | 0.0 | 0.9 | 0.05 | 0.05 | 0.05 | 81 | 1008.4 |
| 20260504050349 | 58 | 360 | 0.9 | 1.7 | 0.00 | 0.00 | 0.00 | 73 | 1008.5 |
| 20260504050144 | 57 | 360 | 0.0 | 0.9 | 0.00 | 0.00 | 0.00 | 73 | 1008.3 |
| 20260504045854 | 58 | 360 | 0.0 | 0.0 | 0.00 | 0.00 | 0.00 | 72 | 1008.8 |
| 20260504045341 | 58 | 360 | 0.0 | 0.0 | 0.00 | 0.00 | 0.00 | 73 | 1008.8 |
| 20260504044848 | 58 | 360 | 0.0 | 0.9 | 0.00 | 0.00 | 0.00 | 72 | 1008.6 |
| 20260504044613 | 58 | 360 | 0.0 | 0.9 | 0.00 | 0.00 | 0.00 | 73 | 1008.4 |
| 20260504044355 | 58 | 360 | 0.0 | 0.9 | 0.00 | 0.00 | 0.00 | 72 | 1008.5 |
| 20260504043841 | 58 | 360 | 0.0 | 0.0 | 0.00 | 0.00 | 0.00 | 71 | 1008.8 |
| 20260504043347 | 58 | 360 | 0.0 | 0.0 | 0.00 | 0.00 | 0.00 | 71 | 1008.9 |
| 20260504043116 | 58 | 360 | 0.0 | 0.0 | 0.00 | 0.00 | 0.00 | 71 | 1008.7 |
| 20260504042852 | 58 | 360 | 0.0 | 0.0 | 0.00 | 0.00 | 0.00 | 71 | 1008.9 |
| 20260504042358 | 59 | 360 | 0.0 | 0.9 | 0.00 | 0.00 | 0.00 | 71 | 1008.6 |
| 20260504041843 | 59 | 360 | 0.0 | 2.6 | 0.00 | 0.00 | 0.00 | 71 | 1008.5 |
| 20260504041606 | 58 | 360 | 0.0 | 2.6 | 0.00 | 0.00 | 0.00 | 71 | 1008.2 |
| 20260504041348 | 59 | 360 | 0.9 | 2.6 | 0.00 | 0.00 | 0.00 | 71 | 1008.5 |
| 20260504040855 | 59 | 355 | 0.0 | 0.0 | 0.00 | 0.00 | 0.00 | 69 | 1009.0 |
| 20260504040345 | 60 | 355 | 0.0 | 0.9 | 0.00 | 0.00 | 0.00 | 69 | 1009.0 |
| 20260504040010 | 59 | 355 | 0.0 | 0.9 | 0.00 | 0.00 | 0.00 | 69 | 1008.6 |
| 20260504035909 | 60 | 355 | 0.0 | 0.9 | 0.00 | 0.00 | 0.00 | 69 | 1008.8 |
| 20260504035354 | 60 | 355 | 0.0 | 0.0 | 0.00 | 0.00 | 0.00 | 68 | 1008.8 |
| 20260504034841 | 60 | 355 | 0.0 | 0.0 | 0.00 | 0.00 | 0.00 | 68 | 1009.0 |
| 20260504034604 | 60 | 355 | 0.0 | 0.0 | 0.00 | 0.00 | 0.00 | 68 | 1008.8 |
| 20260504034406 | 61 | 355 | 0.0 | 0.0 | 0.00 | 0.00 | 0.00 | 67 | 1008.9 |
| 20260504033851 | 61 | 355 | 0.0 | 0.0 | 0.00 | 0.00 | 0.00 | 68 | 1009.0 |
| 20260504033356 | 61 | 355 | 0.0 | 0.9 | 0.00 | 0.00 | 0.00 | 67 | 1009.0 |
| 20260504033132 | 61 | 355 | 0.0 | 0.9 | 0.00 | 0.00 | 0.00 | 67 | 1008.8 |
| 20260504032841 | 61 | 355 | 0.0 | 0.9 | 0.00 | 0.00 | 0.00 | 67 | 1009.0 |
| 20260504032346 | 62 | 355 | 0.0 | 0.0 | 0.00 | 0.00 | 0.00 | 66 | 1009.1 |
| 20260504031852 | 62 | 355 | 0.0 | 0.0 | 0.00 | 0.00 | 0.00 | 66 | 1009.1 |
| 20260504031616 | 62 | 355 | 0.0 | 0.0 | 0.00 | 0.00 | 0.00 | 66 | 1008.9 |
| 20260504031341 | 62 | 355 | 0.0 | 0.0 | 0.00 | 0.00 | 0.00 | 65 | 1009.2 |
| 20260504030847 | 62 | 355 | 0.0 | 0.0 | 0.00 | 0.00 | 0.00 | 65 | 1009.2 |
| 20260504030408 | 63 | 355 | 0.0 | 0.0 | 0.00 | 0.00 | 0.00 | 65 | 1009.2 |
| 20260504030017 | 63 | 355 | 0.0 | 0.0 | 0.00 | 0.00 | 0.00 | 64 | 1009.0 |
| 20260504025915 | 63 | 355 | 0.0 | 0.0 | 0.00 | 0.00 | 0.00 | 64 | 1009.3 |
| 20260504025341 | 64 | 355 | 0.0 | 0.0 | 0.00 | 0.00 | 0.00 | 63 | 1009.2 |
| 20260504024846 | 64 | 355 | 0.0 | 0.0 | 0.00 | 0.00 | 0.00 | 62 | 1009.2 |
| 20260504024609 | 63 | 355 | 0.0 | 0.0 | 0.00 | 0.00 | 0.00 | 62 | 1009.1 |
| 20260504024351 | 64 | 355 | 0.0 | 0.0 | 0.00 | 0.00 | 0.00 | 62 | 1009.2 |
| 20260504023859 | 64 | 355 | 0.0 | 0.0 | 0.00 | 0.00 | 0.00 | 62 | 1009.1 |
| 20260504023344 | 65 | 355 | 0.0 | 0.0 | 0.00 | 0.00 | 0.00 | 61 | 1009.0 |
| 20260504023108 | 64 | 355 | 0.0 | 0.0 | 0.00 | 0.00 | 0.00 | 60 | 1008.8 |
| 20260504022850 | 65 | 355 | 0.0 | 0.0 | 0.00 | 0.00 | 0.00 | 60 | 1009.0 |
| 20260504022354 | 65 | 355 | 0.0 | 0.0 | 0.00 | 0.00 | 0.00 | 58 | 1009.0 |
| 20260504021845 | 66 | 355 | 0.0 | 0.0 | 0.00 | 0.00 | 0.00 | 58 | 1008.9 |
| 20260504021605 | 65 | 355 | 0.0 | 0.0 | 0.00 | 0.00 | 0.00 | 58 | 1008.8 |
| 20260504021350 | 66 | 355 | 0.0 | 0.0 | 0.00 | 0.00 | 0.00 | 57 | 1009.0 |
| 20260504020855 | 66 | 355 | 0.0 | 0.0 | 0.00 | 0.00 | 0.00 | 56 | 1009.0 |
| 20260504020340 | 67 | 355 | 0.0 | 0.0 | 0.00 | 0.00 | 0.00 | 56 | 1009.0 |
| 20260504020151 | 66 | 355 | 0.0 | 0.0 | 0.00 | 0.00 | 0.00 | 55 | 1008.8 |
| 20260504015847 | 67 | 355 | 0.0 | 0.0 | 0.00 | 0.00 | 0.00 | 55 | 1008.9 |
| 20260504015352 | 67 | 355 | 0.0 | 0.0 | 0.00 | 0.00 | 0.00 | 55 | 1009.0 |
| 20260504014858 | 67 | 355 | 0.0 | 0.0 | 0.00 | 0.00 | 0.00 | 54 | 1009.0 |
| 20260504014616 | 67 | 355 | 0.0 | 0.0 | 0.00 | 0.00 | 0.00 | 54 | 1008.8 |
| 20260504014342 | 67 | 355 | 0.0 | 0.0 | 0.00 | 0.00 | 0.00 | 53 | 1009.1 |
| 20260504013849 | 68 | 355 | 0.0 | 0.0 | 0.00 | 0.00 | 0.00 | 52 | 1009.1 |
| 20260504013355 | 68 | 355 | 0.0 | 0.0 | 0.00 | 0.00 | 0.00 | 53 | 1009.0 |
| 20260504013001 | 67 | 355 | 0.0 | 0.0 | 0.00 | 0.00 | 0.00 | 53 | 1008.8 |
| 20260504012900 | 68 | 355 | 0.0 | 0.0 | 0.00 | 0.00 | 0.00 | 54 | 1009.0 |
| 20260504012345 | 68 | 355 | 0.0 | 0.9 | 0.00 | 0.00 | 0.00 | 53 | 1008.6 |
| 20260504011913 | 68 | 355 | 0.0 | 1.7 | 0.00 | 0.00 | 0.00 | 52 | 1009.0 |
| 20260504011612 | 68 | 355 | 0.0 | 2.6 | 0.00 | 0.00 | 0.00 | 50 | 1008.9 |
| 20260504011356 | 68 | 355 | 0.0 | 2.6 | 0.00 | 0.00 | 0.00 | 50 | 1009.1 |
| 20260504010842 | 69 | 355 | 0.0 | 1.7 | 0.00 | 0.00 | 0.00 | 50 | 1008.9 |
| 20260504010348 | 69 | 355 | 0.0 | 0.0 | 0.00 | 0.00 | 0.00 | 51 | 1009.1 |
| 20260504010015 | 68 | 355 | 0.0 | 0.0 | 0.00 | 0.00 | 0.00 | 51 | 1008.8 |
| 20260504005915 | 69 | 355 | 0.0 | 0.0 | 0.00 | 0.00 | 0.00 | 51 | 1008.9 |
| 20260504005359 | 69 | 355 | 0.0 | 0.0 | 0.00 | 0.00 | 0.00 | 51 | 1008.7 |
| 20260504004845 | 69 | 355 | 0.0 | 0.0 | 0.00 | 0.00 | 0.00 | 51 | 1008.5 |
| 20260504004604 | 69 | 355 | 0.0 | 0.0 | 0.00 | 0.00 | 0.00 | 51 | 1008.4 |
| 20260504004349 | 70 | 355 | 0.0 | 0.0 | 0.00 | 0.00 | 0.00 | 50 | 1008.8 |
| 20260504003854 | 70 | 355 | 0.0 | 0.0 | 0.00 | 0.00 | 0.00 | 50 | 1009.0 |
| 20260504003340 | 70 | 355 | 0.0 | 0.0 | 0.00 | 0.00 | 0.00 | 49 | 1008.9 |
| 20260504003120 | 70 | 355 | 0.0 | 0.0 | 0.00 | 0.00 | 0.00 | 49 | 1008.8 |
| 20260504002846 | 70 | 355 | 0.0 | 0.0 | 0.00 | 0.00 | 0.00 | 49 | 1009.0 |
| 20260504002413 | 70 | 355 | 0.0 | 0.0 | 0.00 | 0.00 | 0.00 | 49 | 1009.0 |
| 20260504001858 | 71 | 355 | 0.0 | 0.0 | 0.00 | 0.00 | 0.00 | 49 | 1009.0 |
| 20260504001618 | 70 | 355 | 0.0 | 0.0 | 0.00 | 0.00 | 0.00 | 49 | 1008.9 |
| 20260504001344 | 71 | 355 | 0.0 | 0.0 | 0.00 | 0.00 | 0.00 | 49 | 1009.2 |
| 20260504000910 | 71 | 355 | 0.0 | 0.0 | 0.00 | 0.00 | 0.00 | 48 | 1009.3 |
| 20260504000355 | 71 | 355 | 0.0 | 0.0 | 0.00 | 0.00 | 0.00 | 48 | 1009.0 |
| 20260504000145 | 71 | 355 | 0.0 | 0.0 | 0.00 | 0.00 | 0.00 | 48 | 1009.0 |
| 20260503235842 | 71 | 355 | 0.0 | 2.6 | 0.00 | 0.00 | 0.00 | 48 | 1009.1 |
| 20260503235349 | 71 | 355 | 0.0 | 2.6 | 0.00 | 0.00 | 0.00 | 48 | 1009.1 |
| 20260503234856 | 72 | 355 | 0.0 | 0.0 | 0.00 | 0.00 | 0.00 | 48 | 1009.2 |
| 20260503234617 | 71 | 355 | 0.0 | 0.0 | 0.00 | 0.00 | 0.00 | 48 | 1009.0 |
| 20260503234343 | 72 | 355 | 0.0 | 0.0 | 0.00 | 0.00 | 0.00 | 48 | 1008.8 |
| 20260503233847 | 72 | 355 | 0.0 | 0.9 | 0.00 | 0.00 | 0.00 | 47 | 1009.0 |
| 20260503233415 | 72 | 355 | 0.0 | 0.9 | 0.00 | 0.00 | 0.00 | 46 | 1009.1 |
| 20260503233113 | 71 | 355 | 0.0 | 0.9 | 0.00 | 0.00 | 0.00 | 47 | 1009.0 |
| 20260503232859 | 72 | 355 | 0.0 | 0.9 | 0.00 | 0.00 | 0.00 | 46 | 1009.1 |
| 20260503232346 | 72 | 355 | 0.0 | 1.7 | 0.00 | 0.00 | 0.00 | 47 | 1009.0 |
| 20260503231914 | 72 | 355 | 0.0 | 3.5 | 0.00 | 0.00 | 0.00 | 46 | 1009.1 |
| 20260503231612 | 72 | 355 | 0.0 | 3.5 | 0.00 | 0.00 | 0.00 | 46 | 1008.9 |
| 20260503231358 | 73 | 348 | 0.0 | 1.7 | 0.00 | 0.00 | 0.00 | 47 | 1009.1 |
| 20260503230843 | 73 | 347 | 0.0 | 3.5 | 0.00 | 0.00 | 0.00 | 48 | 1009.1 |
| 20260503230349 | 73 | 347 | 0.0 | 3.5 | 0.00 | 0.00 | 0.00 | 47 | 1009.3 |
| 20260503230140 | 72 | 347 | 0.0 | 3.5 | 0.00 | 0.00 | 0.00 | 47 | 1009.1 |
| 20260503225856 | 73 | 355 | 0.0 | 3.5 | 0.00 | 0.00 | 0.00 | 48 | 1009.3 |
| 20260503225342 | 73 | 350 | 0.9 | 3.5 | 0.00 | 0.00 | 0.00 | 48 | 1009.1 |
| 20260503224848 | 73 | 15 | 0.9 | 3.5 | 0.00 | 0.00 | 0.00 | 48 | 1009.1 |
| 20260503224615 | 72 | 290 | 0.0 | 1.7 | 0.00 | 0.00 | 0.00 | 48 | 1009.0 |
| 20260503224354 | 73 | 290 | 0.0 | 2.6 | 0.00 | 0.00 | 0.00 | 48 | 1009.2 |
| 20260503223900 | 73 | 290 | 0.9 | 2.6 | 0.00 | 0.00 | 0.00 | 48 | 1009.4 |
| 20260503223345 | 73 | 261 | 0.0 | 2.6 | 0.00 | 0.00 | 0.00 | 48 | 1009.3 |
| 20260503223114 | 72 | 261 | 0.0 | 2.6 | 0.00 | 0.00 | 0.00 | 48 | 1009.1 |
| 20260503222850 | 73 | 261 | 0.9 | 2.6 | 0.00 | 0.00 | 0.00 | 48 | 1009.2 |
| 20260503222356 | 73 | 342 | 0.0 | 1.7 | 0.00 | 0.00 | 0.00 | 49 | 1009.4 |
| 20260503221842 | 73 | 342 | 0.0 | 2.6 | 0.00 | 0.00 | 0.00 | 48 | 1009.1 |
| 20260503221623 | 72 | 342 | 0.0 | 2.6 | 0.00 | 0.00 | 0.00 | 48 | 1009.3 |